• In Italy
  • List of Countries
  • For 7 days
  • Water Temperature
  • Satellite Maps
  • Weather Map
  • Weather Widgets
  • user-avatar
    Login

    Hourly Weather Sherpur

    Today, 20 October, Friday

    Time Temperature Precipitation Wind Pressure Humidity
    00:00 +13°C° 0 mm 2 mps 610 mmHg 37%
    01:00 +12°C° 0 mm 2 mps 610 mmHg 38%
    02:00 +12°C° 0 mm 2 mps 610 mmHg 39%
    03:00 +10°C° 0 mm 2 mps 610 mmHg 39%
    04:00 +11°C° 0 mm 1 mps 609 mmHg 40%
    05:00 +10°C° 0 mm 1 mps 609 mmHg 41%
    06:00 +11°C° 0 mm 1 mps 610 mmHg 37%
    07:00 +13°C° 0 mm 1 mps 611 mmHg 33%
    08:00 +14°C° 0 mm 1 mps 612 mmHg 29%
    09:00 +15°C° 0 mm 1 mps 612 mmHg 25%
    10:00 +18°C° 0 mm 1 mps 612 mmHg 21%
    11:00 +20°C° 0 mm 1 mps 613 mmHg 17%
    12:00 +19°C° 0 mm 2 mps 612 mmHg 17%
    13:00 +20°C° 0 mm 2 mps 612 mmHg 16%
    14:00 +21°C° 0 mm 2 mps 612 mmHg 15%
    15:00 +20°C° 0 mm 2 mps 612 mmHg 15%
    16:00 +20°C° 0 mm 2 mps 612 mmHg 15%
    17:00 +20°C° 0 mm 2 mps 611 mmHg 15%
    18:00 +19°C° 0 mm 1 mps 611 mmHg 18%
    19:00 +16°C° 0 mm 1 mps 610 mmHg 20%
    20:00 +14°C° 0 mm 1 mps 610 mmHg 23%
    21:00 +14°C° 0 mm 1 mps 609 mmHg 24%
    22:00 +13°C° 0 mm 1 mps 609 mmHg 25%
    23:00 +12°C° 0 mm 1 mps 609 mmHg 26%

    Tomorrow, 21 October, Saturday

    Time Temperature Precipitation Wind Pressure Humidity
    00:00 +12°C° 0 mm 1 mps 608 mmHg 27%
    01:00 +10°C° 0 mm 0 mps 608 mmHg 27%
    02:00 +10°C° 0 mm 0 mps 608 mmHg 28%
    03:00 +9°C° 0 mm 0 mps 607 mmHg 28%
    04:00 +9°C° 0 mm 0 mps 607 mmHg 29%
    05:00 +10°C° 0 mm 1 mps 607 mmHg 29%
    06:00 +11°C° 0 mm 1 mps 608 mmHg 27%
    07:00 +13°C° 0 mm 1 mps 609 mmHg 24%
    08:00 +14°C° 0 mm 1 mps 610 mmHg 22%
    09:00 +16°C° 0 mm 1 mps 610 mmHg 19%
    10:00 +18°C° 0 mm 1 mps 610 mmHg 16%
    11:00 +19°C° 0 mm 1 mps 610 mmHg 13%
    12:00 +19°C° 0 mm 2 mps 610 mmHg 12%
    13:00 +20°C° 0 mm 2 mps 610 mmHg 11%
    14:00 +20°C° 0 mm 2 mps 610 mmHg 10%
    15:00 +20°C° 0 mm 2 mps 610 mmHg 10%
    16:00 +19°C° 0 mm 2 mps 609 mmHg 10%
    17:00 +19°C° 0 mm 2 mps 609 mmHg 9%
    18:00 +17°C° 0 mm 2 mps 609 mmHg 11%
    19:00 +16°C° 0 mm 2 mps 608 mmHg 12%
    20:00 +14°C° 0 mm 2 mps 608 mmHg 14%
    21:00 +13°C° 0 mm 2 mps 608 mmHg 16%
    22:00 +12°C° 0 mm 2 mps 607 mmHg 17%
    23:00 +12°C° 0 mm 2 mps 607 mmHg 19%

    Day after tomorrow, 22 October, Sunday

    Time Temperature Precipitation Wind Pressure Humidity
    00:00 +11°C° 0 mm 1 mps 607 mmHg 20%
    01:00 +11°C° 0 mm 1 mps 606 mmHg 22%
    02:00 +10°C° 0 mm 1 mps 606 mmHg 24%
    03:00 +10°C° 0 mm 1 mps 606 mmHg 25%
    04:00 +9°C° 0 mm 1 mps 606 mmHg 26%
    05:00 +9°C° 0 mm 1 mps 605 mmHg 27%
    06:00 +10°C° 0 mm 1 mps 606 mmHg 25%
    07:00 +11°C° 0 mm 1 mps 607 mmHg 23%
    08:00 +13°C° 0 mm 1 mps 608 mmHg 21%
    09:00 +14°C° 0 mm 1 mps 608 mmHg 19%
    10:00 +15°C° 0 mm 1 mps 608 mmHg 16%
    11:00 +16°C° 0 mm 1 mps 609 mmHg 14%
    12:00 +17°C° 0 mm 2 mps 608 mmHg 13%
    13:00 +18°C° 0 mm 2 mps 608 mmHg 12%
    14:00 +18°C° 0 mm 2 mps 608 mmHg 11%
    15:00 +18°C° 0 mm 2 mps 608 mmHg 11%
    16:00 +17°C° 0 mm 2 mps 608 mmHg 11%
    17:00 +17°C° 0 mm 2 mps 608 mmHg 12%
    18:00 +15°C° 0 mm 2 mps 607 mmHg 13%
    19:00 +14°C° 0 mm 1 mps 607 mmHg 15%
    20:00 +12°C° 0 mm 1 mps 607 mmHg 17%
    21:00 +11°C° 0 mm 1 mps 607 mmHg 17%
    22:00 +11°C° 0 mm 1 mps 606 mmHg 18%
    23:00 +10°C° 0 mm 1 mps 606 mmHg 19%

    23 October, Monday

    Time Temperature Precipitation Wind Pressure Humidity
    00:00 +9°C° 0 mm 1 mps 606 mmHg 20%
    01:00 +9°C° 0 mm 1 mps 606 mmHg 20%
    02:00 +8°C° 0 mm 1 mps 605 mmHg 21%
    03:00 +8°C° 0 mm 1 mps 605 mmHg 21%
    04:00 +8°C° 0 mm 1 mps 605 mmHg 22%
    05:00 +7°C° 0 mm 1 mps 605 mmHg 22%
    06:00 +9°C° 0 mm 1 mps 606 mmHg 20%
    07:00 +10°C° 0 mm 1 mps 607 mmHg 19%
    08:00 +11°C° 0 mm 1 mps 608 mmHg 17%
    09:00 +13°C° 0 mm 1 mps 609 mmHg 16%
    10:00 +14°C° 0 mm 1 mps 609 mmHg 14%
    11:00 +16°C° 0 mm 2 mps 610 mmHg 12%
    12:00 +16°C° 0 mm 2 mps 610 mmHg 12%
    13:00 +17°C° 0 mm 2 mps 610 mmHg 11%
    14:00 +18°C° 0 mm 2 mps 609 mmHg 11%
    15:00 +17°C° 0 mm 2 mps 610 mmHg 11%
    16:00 +17°C° 0 mm 2 mps 610 mmHg 12%
    17:00 +17°C° 0 mm 2 mps 610 mmHg 12%
    18:00 +15°C° 0 mm 2 mps 610 mmHg 14%
    19:00 +14°C° 0 mm 1 mps 609 mmHg 15%
    20:00 +12°C° 0 mm 1 mps 609 mmHg 17%
    21:00 +12°C° 0 mm 1 mps 609 mmHg 18%
    22:00 +11°C° 0 mm 1 mps 609 mmHg 19%
    23:00 +11°C° 0 mm 1 mps 609 mmHg 19%

    24 October, Tuesday

    Time Temperature Precipitation Wind Pressure Humidity
    00:00 +10°C° 0 mm 1 mps 609 mmHg 20%
    01:00 +10°C° 0 mm 1 mps 609 mmHg 20%
    02:00 +10°C° 0 mm 1 mps 609 mmHg 21%
    03:00 +9°C° 0 mm 2 mps 609 mmHg 21%
    04:00 +8°C° 0 mm 2 mps 609 mmHg 22%
    05:00 +8°C° 0 mm 2 mps 609 mmHg 22%
    06:00 +9°C° 0 mm 2 mps 610 mmHg 21%
    07:00 +10°C° 0 mm 2 mps 611 mmHg 20%
    08:00 +12°C° 0 mm 2 mps 612 mmHg 19%
    09:00 +14°C° 0 mm 2 mps 613 mmHg 16%
    10:00 +16°C° 0 mm 2 mps 614 mmHg 14%
    11:00 +18°C° 0 mm 2 mps 614 mmHg 11%
    12:00 +18°C° 0 mm 2 mps 614 mmHg 10%
    13:00 +19°C° 0 mm 3 mps 614 mmHg 10%
    14:00 +20°C° 0 mm 3 mps 614 mmHg 9%
    15:00 +19°C° 0 mm 3 mps 614 mmHg 9%
    16:00 +19°C° 0 mm 3 mps 613 mmHg 9%
    17:00 +18°C° 0 mm 2 mps 613 mmHg 10%
    18:00 +17°C° 0 mm 2 mps 613 mmHg 11%
    19:00 +15°C° 0 mm 2 mps 612 mmHg 13%
    20:00 +13°C° 0 mm 2 mps 612 mmHg 14%
    21:00 +13°C° 0 mm 2 mps 612 mmHg 14%
    22:00 +12°C° 0 mm 2 mps 612 mmHg 15%
    23:00 +12°C° 0 mm 2 mps 611 mmHg 15%

    25 October, Wednesday

    Time Temperature Precipitation Wind Pressure Humidity
    00:00 +10°C° 0 mm 2 mps 611 mmHg 15%
    01:00 +10°C° 0 mm 2 mps 611 mmHg 15%
    02:00 +10°C° 0 mm 2 mps 610 mmHg 16%
    03:00 +10°C° 0 mm 2 mps 610 mmHg 16%
    04:00 +9°C° 0 mm 2 mps 610 mmHg 16%
    05:00 +9°C° 0 mm 2 mps 610 mmHg 17%
    06:00 +10°C° 0 mm 2 mps 611 mmHg 16%
    07:00 +12°C° 0 mm 2 mps 612 mmHg 15%
    08:00 +14°C° 0 mm 2 mps 612 mmHg 14%
    09:00 +16°C° 0 mm 2 mps 613 mmHg 12%
    10:00 +18°C° 0 mm 2 mps 614 mmHg 10%
    11:00 +20°C° 0 mm 2 mps 614 mmHg 8%
    12:00 +21°C° 0 mm 2 mps 614 mmHg 8%
    13:00 +21°C° 0 mm 2 mps 614 mmHg 7%
    14:00 +23°C° 0 mm 2 mps 614 mmHg 7%
    15:00 +21°C° 0 mm 2 mps 614 mmHg 7%
    16:00 +21°C° 0 mm 2 mps 614 mmHg 8%
    17:00 +20°C° 0 mm 2 mps 614 mmHg 9%
    18:00 +18°C° 0 mm 2 mps 613 mmHg 10%
    19:00 +16°C° 0 mm 2 mps 613 mmHg 12%
    20:00 +14°C° 0 mm 2 mps 613 mmHg 13%
    21:00 +14°C° 0 mm 2 mps 612 mmHg 14%
    22:00 +13°C° 0 mm 2 mps 612 mmHg 15%
    23:00 +12°C° 0 mm 2 mps 612 mmHg 16%
    Show more